Location: Amsterdam
(30.7274°N, 84.4357°W)
Time: 20:12:40
(UTC+00:00)

Altair - Pass Details

Date: 09 August 2024
Orbit: 1501 x 1682 km, 47.2° (Epoch: 07 September)

Event Time Altitude Azimuth Distance (km) Brightness Sun altitude
Rises 01:38:16 0° 306° (NW) 4,691 11.9 -15.0°
Reaches altitude 10° 01:41:23 10° 303° (WNW) 3,689 10.9 -15.6°
Maximum altitude 01:50:24 60° 226° (SW) 1,685 7.7 -17.3°
Enters shadow 01:57:08 19° 153° (SSE) 2,970 8.5 -18.5°
Drops below altitude 10° 01:59:19 10° 149° (SSE) 3,645 - -18.9°
Sets 02:02:23 0° 145° (SE) 4,632 - -19.5°
